Retour au catalogue

CZ-4 DEB

ActifSSO
NORAD 39055·DEBRIS·🇨🇳 China

Lancé Sep 3, 1990 depuis Taiyuan Satellite Launch Center

Loading…

Prochains Passages (prochaines 24 heures)

TLE

PériméSource: Space-Track

Époque: Aug 30, 2026, 19:08 UTC

1 39055U 90081DP  26242.79789414  .00000928  00000-0  41771-3 0  9997
2 39055  98.7504 234.3088 0008258 156.5208 325.7468 14.24714561733031

Suivez CZ-4 DEB en temps réel avec AllMySat

Download on the App Store